Regional Weather Roundup
Issued by NWS

Home | Current Version | Previous Version | Text Only | Print | Product List | Glossary Off
Versions: 1 2 3 4 5 6 7 8 9 10 11 12 13 14 15 16 17 18 19 20 21 22 23 24 25 26 27 28 29 30 31 32 33 34 35 36 37 38 39 40 41 42 43 44 45 46 47 48 49 50

000
ASUS43 KLOT 190708
RWRIL

ILLINOIS REGIONAL WEATHER ROUNDUP
NATIONAL WEATHER SERVICE CHICAGO/ROMEOVILLE IL
200 AM CDT TUE SEP 19 2017

NOTE: "FAIR" INDICATES FEW OR NO CLOUDS BELOW 12,000 FEET WITH NO
SIGNIFICANT WEATHER AND/OR OBSTRUCTIONS TO VISIBILITY.

* THESE STATIONS ARE NOT UNDER NWS QUALITY CONTROL. THEY ALSO MAY NOT
  REPORT WEATHER SUCH AS PRECIPITATION OR FOG.

ILZ001-002-007-009-015-016-024-190800-
NORTHWEST ILLINOIS

CITY           SKY/WX    TMP DP  RH WIND       PRES   REMARKS
MOLINE         PTCLDY    65  63  93 E3        29.93F FOG
STERLING*      LGT RAIN  60  59  96 NE6       29.96F
SAVANNA*       CLOUDY    62  58  90 E6        29.96F
$$

ILZ003-004-008-010-011-017-018-190800-
NORTH CENTRAL ILLINOIS

CITY           SKY/WX    TMP DP  RH WIND       PRES   REMARKS
ROCKFORD       LGT RAIN  62  58  86 E10       29.98S
FREEPORT*      RAIN      59  57  96 E6        30.00S
ROCHELLE*      LGT RAIN  62  59  91 CALM      29.98F
DE KALB*       CLOUDY    62  60  94 CALM      29.98F
PERU*          CLOUDY    61  58  90 NE6       29.96S
$$

ILZ005-006-012>014-019>023-190800-
NORTHEAST ILLINOIS

CITY           SKY/WX    TMP DP  RH WIND       PRES   REMARKS
CHICAGO-OHARE  LGT RAIN  67  63  87 NE6       29.95F
CHICAGO-MIDWAY LGT RAIN  68  65  90 CALM      29.96R FOG
AURORA         HVY RAIN  62  62 100 E3        29.97F FOG
LANSING*       RAIN      66  65  99 CALM      29.96S
JOLIET*        RAIN      64  64  97 CALM      29.97F
WAUKEGAN       CLOUDY    64  32  30 NE5       29.95F
DUPAGE AIRPORT RAIN      63  63 100 W5        29.97R FOG
KANKAKEE*      CLOUDY    63  63  98 N5        29.94F
WHEELING       MOCLDY    67  64  90 NE3       29.96F
MORRIS*        HVY RAIN  62  60  96 CALM      29.95F
ROMEOVILLE*    HVY RAIN  63  62  96 CALM      29.97F
NORTHERLY ISL    N/A     67  64  90 N6          N/A
$$

LMZ740>746-190800-
SOUTHERN LAKE MICHIGAN

STATION/POSITION SKY/WX   TEMP    WIND        PRES    VSBY  WAVE
                          AIR SEA DIR/SP/G                  HT/PER
                          (F)     (DEG/KT/KT) (MB)    (MI)  (FT/S)
SOUTHERN BUOY              68 68   60/  6/  8 1015.3          2/ 4
WILMETTE HARBOR            68 69   40/  6/  6   N/A           2/ 5
HARRISON CRIB              69      30/  7/  7   N/A
CALUMET HARBOR                     30/  3/  5 1013.8F
BURNS HARBOR               66      70/  5/  6 1014.6F
MICHIGAN CITY              66     100/  5/  6   N/A
MICHIGAN CITY 6N           67 68   90/  4/  6   N/A           2/ 5
ST. JOSEPH                 68 69  140/  8/ 10 1014.2          2/ 4
$$

ILZ025>027-034>036-040-047-049-050-058-095>099-190800-
WEST-CENTRAL ILLINOIS

CITY           SKY/WX    TMP DP  RH WIND       PRES   REMARKS
QUINCY         FOG       66  66 100 SW6       29.94S VSB 1/4
GALESBURG*     FOG       64  64 100 NE3       29.95S VSB 1/2
MACOMB*        FOG       67  67 100 CALM      29.96S VSB 1/2
JACKSONVILLE*  FOG       66  66  99 CALM      29.94S VSB 1/4
PITTSFIELD*    FOG       64  64 100 CALM      29.95S VSB<1/4
$$

ILZ028>032-037-038-041>044-048-051>054-059>061-190800-
CENTRAL ILLINOIS

CITY           SKY/WX    TMP DP  RH WIND       PRES   REMARKS
PONTIAC        LGT RAIN  65  64  99 CALM      29.95S
BLOOMINGTON    CLOUDY    66  65  96 E8        29.95F
DECATUR        CLOUDY    69  69 100 W5        29.94S
PEORIA         CLOUDY    68  68 100 CALM      29.94S FOG
LACON*         CLOUDY    63  63 100 CALM      29.93F
LINCOLN*       CLOUDY    69  69 100 S3        29.94S FOG
SPRINGFIELD    CLOUDY    69  68  96 CALM      29.95S
TAYLORVILLE    NOT AVBL
$$

ILZ033-039-045-046-055>057-062-063-190800-
EAST-CENTRAL ILLINOIS

CITY           SKY/WX    TMP DP  RH WIND       PRES   REMARKS
CHAMPAIGN      LGT RAIN  69  68  96 CALM      29.94F FOG
RANTOUL*       RAIN      69  68  98 NE5       29.94F
MATTOON        CLOUDY    68  68 100 S5        29.95R FOG
PARIS*         CLOUDY    69  69  99 SW3       29.97S FOG
$$

ILZ079-100>102-190800-
SOUTHWEST ILLINOIS

CITY           SKY/WX    TMP DP  RH WIND       PRES   REMARKS
ALTON          CLOUDY    67  67 100 CALM      29.95S FOG
BELLEVILLE     MOCLDY    69  66  90 NW2       29.96S
CAHOKIA*       LGT RAIN  71  68  90 W3        29.94S
SPARTA*        CLOUDY    70  70 100 CALM      29.95R
$$

ILZ064>066-069>071-074>076-080>082-084>086-088>090-092>094-190800-
SOUTH-CENTRAL ILLINOIS

CITY           SKY/WX    TMP DP  RH WIND       PRES   REMARKS
CARBONDALE     LGT RAIN  71  71 100 S8        29.94F
CAIRO*         CLOUDY    70  70 100 NW5       29.95R
EFFINGHAM*     CLOUDY    70  70 100 CALM      29.96R FOG
MARION         RAIN      73  72  94 SW5       29.97R
MT. VERNON     TSTM      67  66  97 CALM      29.94F
CENTRALIA*     CLOUDY    71  71 100 CALM      29.93F
SALEM*         CLOUDY    71  69  93 S3        29.95R
METROPOLIS*    CLOUDY    71  70  97 CALM      29.95S
$$

ILZ067-068-072-073-078-083-087-091-190800-
SOUTHEAST ILLINOIS

CITY           SKY/WX    TMP DP  RH WIND       PRES   REMARKS
LAWRENCEVILLE  CLOUDY    70  69  97 CALM      29.96S
FLORA*         MOCLDY    69  68  96 SE7       29.95F THUNDER
FAIRFIELD*     CLOUDY    69  69  99 CALM      29.94F THUNDER
HARRISBURG*    RAIN      70  70 100 SE5       29.94S
ROBINSON*      CLOUDY    68  68 100 CALM      29.97R FOG
CARMI*         CLOUDY    69  69 100 CALM      29.94S FOG
$$

ABBREVIATIONS USED IN REMARKS
   TC - TEMPERATURE IN CELSIUS
  WCI - WIND CHILL INDEX
   HX - HEAT INDEX
  VSB - VISIBILITY
$$





USA.gov is the U.S. government's official web portal to all federal, state and local government web resources and services.